• In Russia
  • List of Countries
  • For 7 days
  • Water Temperature
  • Weather Map
  • Weather Widgets
  • user-avatar
    Login

    Hourly Weather Pasto

    Today, 19 January, Sunday

    Time Temperature Precipitation Wind Pressure Humidity
    00:00 +12°C° 0 mm 2 mps 547 mmHg 87%
    01:00 +13°C° 0 mm 2 mps 547 mmHg 90%
    02:00 +13°C° 0.1 mm 2 mps 547 mmHg 91%
    03:00 +12°C° 0.1 mm 2 mps 547 mmHg 92%
    04:00 +12°C° 0.1 mm 2 mps 546 mmHg 93%
    05:00 +12°C° 0.2 mm 2 mps 547 mmHg 92%
    06:00 +13°C° 0.2 mm 2 mps 547 mmHg 91%
    07:00 +13°C° 0.2 mm 2 mps 547 mmHg 90%
    08:00 +13°C° 0.4 mm 2 mps 548 mmHg 89%
    09:00 +14°C° 0.4 mm 2 mps 549 mmHg 88%
    10:00 +14°C° 0.4 mm 2 mps 549 mmHg 87%
    11:00 +15°C° 0.2 mm 2 mps 550 mmHg 82%
    12:00 +16°C° 0.2 mm 2 mps 550 mmHg 77%
    13:00 +17°C° 0.2 mm 2 mps 550 mmHg 71%
    14:00 +17°C° 0.4 mm 2 mps 549 mmHg 72%
    15:00 +18°C° 0.4 mm 1 mps 549 mmHg 73%
    16:00 +18°C° 0.4 mm 1 mps 548 mmHg 74%
    17:00 +15°C° 0.4 mm 1 mps 548 mmHg 81%
    18:00 +14°C° 0.4 mm 1 mps 547 mmHg 88%
    19:00 +12°C° 0.4 mm 1 mps 547 mmHg 95%
    20:00 +12°C° 0.1 mm 1 mps 547 mmHg 95%
    21:00 +12°C° 0.1 mm 1 mps 548 mmHg 94%
    22:00 +12°C° 0.1 mm 2 mps 548 mmHg 93%
    23:00 +12°C° 0.1 mm 2 mps 548 mmHg 93%

    Tomorrow, 20 January, Monday

    Time Temperature Precipitation Wind Pressure Humidity
    00:00 +12°C° 0.1 mm 1 mps 548 mmHg 92%
    01:00 +12°C° 0.1 mm 1 mps 548 mmHg 91%
    02:00 +12°C° 0.2 mm 1 mps 547 mmHg 92%
    03:00 +12°C° 0.2 mm 1 mps 547 mmHg 93%
    04:00 +12°C° 0.2 mm 1 mps 547 mmHg 94%
    05:00 +12°C° 0.2 mm 1 mps 547 mmHg 94%
    06:00 +12°C° 0.2 mm 1 mps 548 mmHg 93%
    07:00 +12°C° 0.2 mm 1 mps 548 mmHg 93%
    08:00 +13°C° 0.1 mm 1 mps 549 mmHg 90%
    09:00 +14°C° 0.1 mm 1 mps 550 mmHg 86%
    10:00 +15°C° 0.1 mm 1 mps 550 mmHg 83%
    11:00 +16°C° 1 mm 1 mps 550 mmHg 82%
    12:00 +16°C° 1 mm 1 mps 550 mmHg 81%
    13:00 +18°C° 1 mm 1 mps 550 mmHg 80%
    14:00 +16°C° 1.6 mm 1 mps 549 mmHg 83%
    15:00 +16°C° 1.6 mm 1 mps 548 mmHg 85%
    16:00 +16°C° 1.6 mm 1 mps 548 mmHg 88%
    17:00 +15°C° 1.5 mm 1 mps 548 mmHg 91%
    18:00 +14°C° 1.5 mm 1 mps 547 mmHg 94%
    19:00 +12°C° 1.5 mm 0 mps 547 mmHg 97%
    20:00 +12°C° 1.9 mm 0 mps 548 mmHg 97%
    21:00 +13°C° 1.9 mm 1 mps 548 mmHg 97%
    22:00 +13°C° 1.9 mm 1 mps 548 mmHg 96%
    23:00 +12°C° 5.3 mm 1 mps 548 mmHg 97%

    Day after tomorrow, 21 January, Tuesday

    Time Temperature Precipitation Wind Pressure Humidity
    00:00 +12°C° 5.3 mm 1 mps 548 mmHg 97%
    01:00 +12°C° 5.3 mm 1 mps 547 mmHg 98%
    02:00 +12°C° 2.6 mm 1 mps 547 mmHg 98%
    03:00 +11°C° 2.6 mm 1 mps 547 mmHg 97%
    04:00 +10°C° 2.6 mm 0 mps 546 mmHg 97%
    05:00 +10°C° 1 mm 0 mps 547 mmHg 96%
    06:00 +10°C° 1 mm 0 mps 547 mmHg 96%
    07:00 +10°C° 1 mm 0 mps 547 mmHg 96%
    08:00 +12°C° 0.3 mm 1 mps 548 mmHg 92%
    09:00 +13°C° 0.3 mm 1 mps 549 mmHg 88%
    10:00 +14°C° 0.3 mm 1 mps 550 mmHg 84%
    11:00 +15°C° 0.4 mm 1 mps 550 mmHg 84%
    12:00 +16°C° 0.4 mm 1 mps 550 mmHg 83%
    13:00 +16°C° 0.4 mm 2 mps 549 mmHg 82%
    14:00 +15°C° 1 mm 2 mps 548 mmHg 86%
    15:00 +15°C° 1 mm 2 mps 548 mmHg 89%
    16:00 +14°C° 1 mm 2 mps 547 mmHg 93%
    17:00 +13°C° 0.3 mm 1 mps 547 mmHg 94%
    18:00 +13°C° 0.3 mm 1 mps 546 mmHg 96%
    19:00 +12°C° 0.3 mm 1 mps 546 mmHg 98%
    20:00 +12°C° 0 mm 1 mps 547 mmHg 97%
    21:00 +11°C° 0 mm 1 mps 547 mmHg 97%
    22:00 +10°C° 0 mm 0 mps 548 mmHg 96%
    23:00 +10°C° 0 mm 0 mps 547 mmHg 96%

    22 January, Wednesday

    Time Temperature Precipitation Wind Pressure Humidity
    00:00 +10°C° 0 mm 1 mps 547 mmHg 96%
    01:00 +10°C° 0 mm 1 mps 546 mmHg 96%
    02:00 +10°C° 0 mm 1 mps 546 mmHg 96%
    03:00 +10°C° 0 mm 1 mps 546 mmHg 96%
    04:00 +11°C° 0 mm 1 mps 546 mmHg 96%
    05:00 +11°C° 0.1 mm 1 mps 546 mmHg 96%
    06:00 +11°C° 0.1 mm 1 mps 547 mmHg 96%
    07:00 +11°C° 0.1 mm 1 mps 547 mmHg 97%
    08:00 +12°C° 0.1 mm 1 mps 548 mmHg 94%
    09:00 +13°C° 0.1 mm 1 mps 548 mmHg 91%
    10:00 +14°C° 0.1 mm 1 mps 549 mmHg 89%
    11:00 +14°C° 0.9 mm 1 mps 549 mmHg 88%
    12:00 +15°C° 0.9 mm 2 mps 549 mmHg 88%
    13:00 +15°C° 0.9 mm 2 mps 548 mmHg 88%
    14:00 +15°C° 0.6 mm 2 mps 548 mmHg 88%
    15:00 +14°C° 0.6 mm 2 mps 547 mmHg 89%
    16:00 +14°C° 0.6 mm 1 mps 546 mmHg 90%
    17:00 +13°C° 0.1 mm 1 mps 546 mmHg 92%
    18:00 +12°C° 0.1 mm 1 mps 546 mmHg 95%
    19:00 +11°C° 0.1 mm 1 mps 546 mmHg 98%
    20:00 +11°C° 0 mm 1 mps 546 mmHg 97%
    21:00 +11°C° 0 mm 1 mps 546 mmHg 97%
    22:00 +10°C° 0 mm 1 mps 546 mmHg 97%
    23:00 +10°C° 0 mm 1 mps 546 mmHg 96%

    23 January, Thursday

    Time Temperature Precipitation Wind Pressure Humidity
    00:00 +10°C° 0 mm 1 mps 546 mmHg 96%
    01:00 +10°C° 0 mm 1 mps 546 mmHg 95%
    02:00 +10°C° 0 mm 1 mps 546 mmHg 95%
    03:00 +10°C° 0 mm 1 mps 545 mmHg 96%
    04:00 +10°C° 0 mm 1 mps 545 mmHg 96%
    05:00 +10°C° 0 mm 1 mps 546 mmHg 95%
    06:00 +11°C° 0 mm 1 mps 546 mmHg 95%
    07:00 +11°C° 0 mm 1 mps 547 mmHg 95%
    08:00 +13°C° 0 mm 1 mps 548 mmHg 87%
    09:00 +15°C° 0 mm 1 mps 549 mmHg 79%
    10:00 +16°C° 0 mm 1 mps 550 mmHg 72%
    11:00 +17°C° 0.2 mm 2 mps 550 mmHg 70%
    12:00 +18°C° 0.2 mm 2 mps 550 mmHg 69%
    13:00 +18°C° 0.2 mm 2 mps 550 mmHg 68%
    14:00 +17°C° 0.6 mm 2 mps 549 mmHg 73%
    15:00 +17°C° 0.6 mm 2 mps 548 mmHg 78%
    16:00 +16°C° 0.6 mm 2 mps 547 mmHg 82%
    17:00 +15°C° 0.4 mm 2 mps 547 mmHg 87%
    18:00 +13°C° 0.4 mm 1 mps 546 mmHg 92%
    19:00 +12°C° 0.4 mm 1 mps 546 mmHg 97%
    20:00 +12°C° 0.2 mm 1 mps 546 mmHg 97%
    21:00 +12°C° 0.2 mm 1 mps 547 mmHg 97%
    22:00 +10°C° 0.2 mm 0 mps 547 mmHg 97%
    23:00 +10°C° 0.2 mm 0 mps 547 mmHg 97%

    24 January, Friday

    Time Temperature Precipitation Wind Pressure Humidity
    00:00 +10°C° 0.2 mm 0 mps 547 mmHg 97%
    01:00 +10°C° 0.2 mm 0 mps 546 mmHg 97%
    02:00 +10°C° 0.1 mm 0 mps 546 mmHg 97%
    03:00 +10°C° 0.1 mm 0 mps 546 mmHg 97%
    04:00 +10°C° 0.1 mm 0 mps 546 mmHg 97%
    05:00 +10°C° 0 mm 0 mps 546 mmHg 96%
    06:00 +10°C° 0 mm 0 mps 546 mmHg 96%
    07:00 +10°C° 0 mm 0 mps 547 mmHg 96%
    08:00 +13°C° 0 mm 1 mps 548 mmHg 87%
    09:00 +15°C° 0 mm 1 mps 549 mmHg 78%
    10:00 +18°C° 0 mm 1 mps 551 mmHg 70%
    11:00 +18°C° 0.4 mm 1 mps 550 mmHg 72%
    12:00 +17°C° 0.4 mm 2 mps 550 mmHg 73%
    13:00 +17°C° 0.4 mm 2 mps 549 mmHg 75%
    14:00 +17°C° 0.9 mm 2 mps 548 mmHg 80%
    15:00 +16°C° 0.9 mm 2 mps 548 mmHg 84%
    16:00 +15°C° 0.9 mm 2 mps 547 mmHg 89%
    17:00 +14°C° 0.5 mm 1 mps 547 mmHg 92%
    18:00 +13°C° 0.5 mm 1 mps 547 mmHg 94%
    19:00 +12°C° 0.5 mm 1 mps 547 mmHg 97%
    20:00 +11°C° 0.2 mm 0 mps 547 mmHg 97%
    21:00 +11°C° 0.2 mm 0 mps 548 mmHg 97%
    22:00 +11°C° 0.2 mm 0 mps 548 mmHg 97%
    23:00 +11°C° 0.5 mm 0 mps 548 mmHg 97%
    Show more